Location: Sternwarte_Laufen
(47.9344°N, 12.9346°E)
Time: 06:16:46
(UTC+02:00)

ISS - Pass Details

Date: 16 July 2018
Orbit: 402 x 408 km, 51.6° (Epoch: 21 July)

Event Time Altitude Azimuth Distance (km) Brightness Sun altitude
Exits shadow 02:31:59 14° 281° (W) 1,238 -1.5 -18.5°
Maximum altitude 02:34:34 45° 352° (N) 571 -2.7 -18.4°
Drops below altitude 10° 02:37:46 10° 67° (ENE) 1,473 -0.4 -18.2°
Sets 02:39:54 0° 74° (ENE) 2,335 0.6 -18.1°
